DateTimeUTC,F1_A11,F1_S11,BsB_S11,BsG_S11,BsR_S11,BbsB_S11,BbsG_S11,BbsR_S11,BaB_A11,BaG_A11,BaR_A11,Tu_S11,T_S11,Uu_S11,U_S11,P_S11,T1_A11
2021-10-20T09:00:00Z,00000200,20000000,,,,,,,-000.40,-000.53,-000.32,17.6,24.4,01.5,01.0,0667.4,31.0
2021-10-20T09:01:00Z,00000200,21000000,,,,,,,-000.23,0000.30,-000.02,17.5,24.4,01.4,00.9,0667.4,31.0
2021-10-20T09:02:00Z,00000200,21000000,,,,,,,0000.32,0000.33,0000.11,17.5,24.4,01.2,00.8,0667.4,31.0
2021-10-20T09:03:00Z,00000200,61000000,,,,,,,0000.41,0000.18,0000.71,17.5,24.4,01.2,00.8,0667.4,31.0
2021-10-20T09:04:00Z,00000200,41000000,0001.88,0001.54,0000.50,0000.69,0000.58,-000.12,0000.75,0000.67,0000.15,17.8,24.3,01.5,01.0,0668.3,31.0
2021-10-20T09:05:00Z,00000200,01000000,0001.35,0001.42,0000.95,0000.28,0000.19,0000.12,0000.53,0000.51,0000.20,18.0,24.3,01.5,01.0,0668.3,31.1
2021-10-20T09:06:00Z,00000200,01000000,0001.65,0001.51,0001.15,0000.73,0000.18,0000.34,0000.69,0000.61,0000.76,18.0,24.4,01.6,01.1,0668.2,31.1
2021-10-20T09:07:00Z,00000200,01000000,0001.49,0001.68,0001.05,0000.74,0000.46,0000.07,0000.46,0000.27,0000.11,18.1,24.4,01.6,01.1,0668.2,31.0
2021-10-20T09:08:00Z,00000200,01000000,0002.97,0001.37,0000.96,-000.01,0000.59,0000.49,0000.18,0000.46,0000.19,18.1,24.4,01.6,01.1,0668.1,31.0
2021-10-20T09:09:00Z,00000200,01000000,0001.86,0001.34,0000.81,0000.58,0000.23,-000.05,0000.44,0000.65,0000.58,18.1,24.4,01.6,01.1,0668.2,31.0
2021-10-20T09:10:00Z,00000200,01000000,0002.23,0001.33,0001.04,0000.32,0000.35,0000.05,0000.90,0000.17,0000.74,18.0,24.3,01.6,01.1,0668.2,31.0
2021-10-20T09:11:00Z,00000200,01000000,0001.34,0001.40,0000.99,-000.01,0000.23,0000.12,0000.30,0000.68,-000.36,18.0,24.3,01.6,01.1,0668.2,31.0
2021-10-20T09:12:00Z,00000200,01000000,0001.67,0001.34,0000.55,-000.05,0000.29,0000.23,0000.89,0000.67,0001.01,17.9,24.3,01.6,01.1,0668.2,31.0
2021-10-20T09:13:00Z,00000200,01000000,0002.16,0001.04,0000.76,0000.60,0000.15,0000.01,0000.39,0000.27,-000.30,17.9,24.3,01.6,01.1,0668.1,31.0
2021-10-20T09:14:00Z,00000200,01000000,0001.84,0001.75,0000.94,0001.14,0000.44,0000.28,0000.74,0000.20,0000.40,17.9,24.2,01.7,01.1,0668.1,31.0
2021-10-20T09:15:00Z,00000200,01000000,0002.50,0001.09,0000.58,0000.41,0000.49,0000.35,0000.12,0000.40,0000.11,17.9,24.2,01.7,01.2,0668.2,31.0
2021-10-20T09:16:00Z,00000200,01000000,0002.02,0001.45,0000.72,0000.75,0000.18,0000.30,0000.73,0000.58,0000.47,17.9,24.2,01.7,01.2,0668.2,31.0
2021-10-20T09:17:00Z,00000200,01000000,0001.72,0001.15,0000.44,0000.83,0000.09,0000.14,0000.48,0000.54,0000.50,17.9,24.3,01.8,01.2,0668.1,31.0
2021-10-20T09:18:00Z,00000200,01000000,0000.77,0001.48,0000.58,0000.02,0000.12,0000.04,0000.42,0000.41,0000.21,18.0,24.3,01.7,01.1,0668.1,31.0
2021-10-20T09:19:00Z,00000200,01000000,0001.40,0001.41,0000.88,0000.95,0000.26,0000.18,0000.53,0000.20,0000.42,18.0,24.4,01.7,01.1,0668.1,31.0
2021-10-20T09:20:00Z,00000200,01000000,0001.77,0001.45,0000.94,0000.75,0000.27,0000.09,0000.06,0000.19,0000.20,18.0,24.4,01.6,01.1,0668.1,31.0
2021-10-20T09:21:00Z,00000200,01000000,0001.95,0001.76,0000.70,0001.05,0000.22,-000.00,0000.62,0000.74,0000.23,18.0,24.4,01.6,01.1,0668.1,31.0
2021-10-20T09:22:00Z,00000200,01000000,0001.71,0001.32,0000.78,0000.72,0000.27,0000.17,0000.43,0000.22,0000.16,18.0,24.3,01.6,01.1,0668.1,31.0
2021-10-20T09:23:00Z,00000200,01000000,0002.07,0001.47,0000.65,0000.56,0000.12,0000.10,0000.38,0000.59,0000.61,18.0,24.3,01.6,01.1,0668.1,31.0
2021-10-20T09:24:00Z,00000200,01000000,0001.69,0001.26,0000.79,0000.51,-000.16,0000.13,0000.02,0000.19,-000.22,17.9,24.3,01.5,01.0,0668.1,31.0
2021-10-20T09:25:00Z,00000200,01000000,0002.26,0001.53,0000.81,0000.69,0000.25,0000.25,0000.75,0000.07,0000.74,17.9,24.3,01.5,01.0,0668.1,31.0
2021-10-20T09:26:00Z,00000200,01000000,0002.45,0001.58,0001.04,0000.78,0000.31,0000.30,0000.54,0000.89,0000.38,17.9,24.2,01.5,01.0,0668.2,31.0
2021-10-20T09:27:00Z,00000200,01000000,0001.60,0001.33,0000.73,0000.89,0000.16,0000.41,0000.43,0000.25,0000.11,17.8,24.2,01.6,01.1,0668.1,31.0
2021-10-20T09:28:00Z,00000200,01000000,0002.05,0001.52,0000.99,0000.89,0000.66,0000.50,0000.19,0000.63,0000.03,17.8,24.2,01.5,01.0,0668.2,31.0
2021-10-20T09:29:00Z,00000200,01000000,0001.57,0001.32,0000.73,0000.83,0000.24,0000.05,0000.53,0000.14,0000.28,17.8,24.2,01.4,01.0,0668.2,31.0
2021-10-20T09:30:00Z,00000200,01000000,0001.41,0001.50,0001.07,0000.36,0000.35,0000.32,0000.23,0000.14,0000.47,17.7,24.1,01.6,01.1,0668.2,31.0
2021-10-20T09:31:00Z,00000200,01000000,0001.48,0001.18,0000.70,0000.78,0000.08,0000.51,0000.60,0000.43,0000.10,17.8,24.1,01.5,01.0,0668.1,31.0
2021-10-20T09:32:00Z,00000200,01000000,0001.56,0001.26,0000.51,0000.88,0000.10,-000.06,0000.30,0000.74,0000.37,17.8,24.2,01.5,01.0,0668.1,31.0
2021-10-20T09:33:00Z,00000200,01000000,0001.49,0001.65,0000.68,-000.17,0000.17,-000.02,0000.51,0000.02,0000.13,17.8,24.2,01.5,01.0,0668.2,31.0
2021-10-20T09:34:00Z,00000200,01000000,0002.01,0001.64,0000.95,0000.68,0000.37,0000.38,0000.28,0000.27,0000.21,17.9,24.2,01.5,01.0,0668.2,31.0
2021-10-20T09:35:00Z,00000200,01000000,0001.93,0001.53,0001.01,0000.90,0000.06,0000.15,0000.54,0000.96,0000.42,18.0,24.3,01.3,00.9,0668.2,31.0
2021-10-20T09:36:00Z,00000200,01000000,0002.00,0001.71,0000.74,0000.46,0000.35,0000.15,0000.34,0000.02,0000.59,18.1,24.3,01.4,01.0,0668.2,31.1
2021-10-20T09:37:00Z,00000200,01000000,0001.81,0001.76,0000.75,0000.14,0000.47,0000.22,0000.76,0000.60,0000.25,18.1,24.4,01.3,00.9,0668.2,31.1
2021-10-20T09:38:00Z,00000200,01000000,0001.64,0001.26,0000.80,-000.01,0000.29,0000.19,-000.05,0000.30,0000.04,18.2,24.4,01.3,00.9,0668.2,31.1
2021-10-20T09:39:00Z,00000200,01000000,0001.92,0001.48,0000.92,0000.30,0000.44,0000.57,0000.56,-000.19,0000.13,18.2,24.4,01.3,00.9,0668.2,31.1
2021-10-20T09:40:00Z,00000200,01000000,0001.73,0001.08,0000.73,0001.11,0000.47,0000.07,0000.25,0000.76,0000.34,18.1,24.4,01.3,00.9,0668.2,31.0
2021-10-20T09:41:00Z,00000200,01000000,0001.62,0001.23,0000.89,0000.26,0000.09,0000.15,0000.38,0000.33,0000.47,18.1,24.4,01.2,00.8,0668.3,31.0
2021-10-20T09:42:00Z,00000200,01000000,0002.20,0001.30,0000.87,0000.52,0000.31,0000.23,0000.59,0000.29,0000.24,18.0,24.3,01.2,00.8,0668.3,31.0
2021-10-20T09:43:00Z,00000200,01000000,0002.30,0001.55,0000.55,0000.47,0000.35,-000.04,0000.63,0000.76,0000.32,18.0,24.3,01.2,00.8,0668.3,31.0
2021-10-20T09:44:00Z,00000200,01000000,0001.38,0001.47,0000.99,0000.28,0000.03,0000.21,0000.10,0000.34,0000.37,18.0,24.3,01.3,00.9,0668.3,31.0
2021-10-20T09:45:00Z,00000200,01000000,0001.45,0001.11,0000.93,-000.44,0000.29,-000.11,0000.57,0000.54,0000.21,17.9,24.3,01.3,00.9,0668.3,31.0
2021-10-20T09:46:00Z,00000200,01000000,0001.95,0001.93,0000.88,0000.70,0000.34,0000.17,0000.24,-000.28,-000.07,17.9,24.3,01.3,00.9,0668.4,31.0
2021-10-20T09:47:00Z,00000200,01000000,0001.87,0001.28,0000.76,0001.00,0000.36,0000.21,0000.31,0000.50,0000.45,18.0,24.3,01.2,00.8,0668.4,31.1
2021-10-20T09:48:00Z,00000200,01000000,0002.37,0001.17,0000.78,0000.91,0000.20,0000.11,0000.63,0000.23,0000.25,18.0,24.3,01.1,00.8,0668.4,31.0
2021-10-20T09:49:00Z,00000200,01000000,0002.20,0001.65,0000.82,0000.48,0000.34,0000.12,0000.69,0000.70,0000.84,18.1,24.4,01.2,00.8,0668.4,31.1
2021-10-20T09:50:00Z,00000200,01000000,0001.84,0001.52,0000.85,0000.08,0000.38,0000.02,0000.43,0000.52,-000.20,18.1,24.4,01.3,00.9,0668.3,31.1
2021-10-20T09:51:00Z,00000200,01000000,0001.45,0001.60,0000.86,0000.48,0000.52,-000.04,0000.62,0000.67,0000.53,18.1,24.4,01.3,00.9,0668.4,31.0
2021-10-20T09:52:00Z,00000200,01000000,0001.34,0001.54,0000.96,0000.92,0000.24,0000.08,0000.70,0000.45,0000.45,18.0,24.4,01.3,00.9,0668.4,31.0
2021-10-20T09:53:00Z,00000200,01000000,0001.67,0001.27,0000.78,0000.64,0000.11,0000.32,0000.50,0000.42,0000.48,18.0,24.3,01.4,00.9,0668.4,31.0
2021-10-20T09:54:00Z,00000200,01000000,0002.54,0001.44,0000.78,0000.80,0000.47,0000.42,0000.78,0000.51,0000.17,18.0,24.3,01.2,00.8,0668.4,31.0
2021-10-20T09:55:00Z,00000200,01000000,0001.53,0001.29,0000.92,0001.16,0000.35,0000.21,0000.33,0000.34,0000.24,18.0,24.3,01.3,00.9,0668.4,31.0
2021-10-20T09:56:00Z,00000200,01000000,0001.75,0001.61,0000.47,0000.20,0000.37,0000.21,0000.37,0000.49,0000.34,17.9,24.3,01.3,00.9,0668.4,31.0
2021-10-20T09:57:00Z,00000200,40000000,,,,,,,0000.54,0000.61,0000.50,17.9,24.3,01.5,01.0,0668.4,31.0
2021-10-20T09:58:00Z,00000200,61000000,,,,,,,-000.57,-000.32,-000.15,17.6,24.3,01.5,01.0,0667.4,31.0
2021-10-20T09:59:00Z,00000200,21000000,,,,,,,0000.15,-000.48,-000.48,17.6,24.4,01.2,00.8,0667.4,31.0
